RH
10 10 9 8 8 7 7 7 7 8 10 11 14 16 19 22 24 25 26 24 22 21 23 23 23 21 18 15 13 14 13 17 29 29 22 14 5 8 12 7 6 11 13 22 31 28 30 33 28 30 29 25 21 16 19 20 18 17 12 10 9 9 10 9 10 11 11 14 19 23 21 25 31 31 30 29 30 34 39 42 42 39 37 38 43 47 51 56
11 11 11 9 8 8 7 7 7 7 9 10 12 15 17 22 24 25 26 26 24 23 24 24 22 20 18 14 14 16 15 22 29 22 14 11 7 7 11 9 6 9 13 19 22 19 21 21 20 24 22 17 13 11 14 16 17 14 9 8 9 9 9 9 10 11 11 13 19 21 20 22 27 29 29 30 33 36 44 47 45 45 46 46 48 52 55 57
13 14 12 11 9 8 7 6 7 7 7 9 10 13 16 23 26 26 26 27 26 25 26 25 22 20 17 15 17 18 23 27 22 13 10 8 6 7 8 9 10 11 13 14 13 11 12 12 14 17 15 11 8 8 9 12 14 10 7 8 9 9 10 12 11 12 12 14 19 21 20 22 24 26 25 27 30 32 40 47 48 50 52 50 50 53 56 57
14 15 13 12 10 8 7 6 6 6 6 8 9 12 17 25 30 28 27 28 27 26 25 23 22 20 17 18 19 24 33 24 9 9 10 5 4 6 6 8 13 14 13 13 10 10 11 10 12 12 10 8 6 7 7 9 10 6 8 8 9 11 12 16 14 14 15 15 20 20 20 23 23 22 23 25 27 27 32 39 45 49 52 51 50 52 55 56
14 15 13 11 9 7 7 5 6 5 6 7 9 12 19 29 33 32 30 29 28 26 23 22 20 18 19 20 18 31 37 13 3 15 14 8 4 4 6 7 10 13 14 14 11 12 13 10 10 10 8 7 6 6 6 7 6 6 10 10 11 12 14 19 17 17 18 17 19 19 20 22 22 25 26 27 29 31 32 35 42 46 49 49 49 52 54 55
13 13 12 10 8 7 6 5 5 4 6 7 8 13 23 32 36 38 37 31 28 23 20 20 17 17 22 20 19 36 32 4 7 19 17 16 10 3 5 6 8 14 15 13 10 11 10 9 10 9 7 6 6 6 6 6 6 7 11 13 14 13 17 20 19 19 18 17 19 19 20 19 22 30 31 33 37 36 36 38 42 47 49 50 50 51 51 52
11 10 9 8 6 6 5 5 4 4 6 6 8 16 26 34 36 39 37 30 25 20 18 17 16 17 21 24 25 31 20 3 9 14 12 16 15 9 4 5 10 14 14 10 8 8 8 9 10 8 6 6 6 6 6 6 6 9 13 16 16 16 19 20 19 19 16 17 18 17 18 18 23 31 33 38 41 39 41 42 44 48 51 51 51 50 50 52
9 8 7 6 5 4 4 4 4 4 5 5 9 19 30 35 33 35 33 26 20 17 18 15 16 16 21 37 33 16 8 6 8 9 8 10 17 15 6 9 13 13 13 8 5 7 8 9 9 7 6 6 6 6 6 7 7 10 16 18 18 19 20 19 18 17 15 16 15 16 20 23 26 30 35 39 41 42 43 45 45 48 51 50 51 50 52 54
7 6 6 5 4 4 4 4 4 4 5 5 10 24 33 32 30 30 26 20 17 18 17 15 17 15 22 41 29 6 8 10 6 7 9 11 17 15 10 14 14 12 10 7 6 9 9 9 8 6 6 6 6 7 7 8 11 14 17 18 19 20 20 18 16 15 14 14 16 21 24 26 27 28 36 39 39 42 43 46 47 49 51 50 49 50 53 55
7 6 5 5 4 3 4 4 4 4 5 4 12 28 34 29 28 25 20 18 17 17 16 16 17 17 31 40 19 5 14 16 13 12 10 15 19 16 13 13 11 10 7 6 8 9 9 8 7 6 6 6 6 6 6 8 13 17 18 18 19 21 19 16 16 17 16 17 18 23 25 26 24 24 35 39 37 40 43 47 48 49 51 49 47 48 53 54
7 7 6 5 4 4 4 4 4 4 4 4 15 32 33 26 22 19 18 17 17 17 16 18 17 25 47 38 12 7 16 22 22 17 15 21 23 18 15 12 10 8 6 6 9 10 10 8 7 6 6 6 6 8 10 12 16 19 19 21 22 20 19 16 17 19 19 20 18 20 24 25 22 24 33 38 36 37 41 46 46 47 48 47 47 49 54 54
8 7 7 5 4 5 4 4 4 4 4 4 18 35 32 23 18 16 18 17 19 17 15 20 19 36 54 28 8 11 15 24 26 20 22 26 24 19 14 12 10 7 5 6 9 12 11 9 8 7 6 6 7 10 15 16 17 18 17 21 23 20 19 17 17 17 18 21 19 19 23 24 26 30 34 36 35 34 38 43 44 45 47 48 47 50 54 54
9 8 7 6 5 5 4 5 4 4 4 3 21 38 30 22 18 16 20 19 20 17 21 29 30 50 53 17 6 10 12 25 26 20 24 24 21 18 15 12 10 9 7 7 10 13 12 11 9 7 6 6 7 11 17 17 16 16 14 17 21 20 20 19 18 17 16 21 23 22 22 25 31 35 35 35 35 35 37 39 40 42 45 48 49 50 52 54
10 9 8 7 5 5 4 6 5 5 4 4 24 39 29 22 19 19 23 21 22 23 31 38 42 59 48 17 13 11 11 25 24 21 22 20 18 16 15 13 12 11 10 10 12 14 13 12 9 6 6 7 10 13 16 17 14 15 14 14 16 18 21 20 18 18 17 20 22 21 20 24 32 35 36 36 35 35 36 37 38 39 42 46 50 50 51 54
11 10 9 7 6 5 4 6 6 5 3 5 28 40 30 25 22 23 26 26 24 25 37 48 57 61 35 15 22 17 16 23 21 21 20 17 15 13 14 13 12 13 14 13 14 14 13 11 7 6 7 9 12 13 14 15 13 13 14 14 13 14 19 21 19 18 18 18 17 16 18 23 31 35 35 36 35 35 35 35 36 39 41 43 47 49 50 52
12 10 10 8 6 5 5 6 6 6 3 9 32 40 33 30 29 28 30 32 31 31 49 60 59 52 26 14 22 20 19 19 16 18 18 17 13 11 13 12 12 14 15 14 13 14 11 10 8 6 8 9 11 11 10 13 14 13 11 13 14 13 17 21 20 18 19 20 17 15 17 22 30 35 35 34 35 35 34 34 35 38 42 45 47 48 49 52
12 11 9 9 7 5 5 5 6 6 3 15 37 41 39 40 36 35 35 36 38 42 57 59 48 42 25 14 17 17 16 15 15 16 16 17 14 11 12 10 11 12 12 12 12 11 9 9 8 6 7 7 8 9 11 13 15 14 11 11 13 13 15 18 19 19 20 20 18 16 17 21 29 36 36 34 35 34 33 33 34 37 42 47 49 48 50 53
12 11 9 9 7 6 6 4 7 5 3 22 39 41 47 51 45 47 50 50 54 56 58 54 44 34 20 11 12 13 13 14 15 14 14 16 14 11 9 8 10 10 10 10 10 9 8 7 7 7 7 7 7 8 11 12 12 13 11 11 13 13 14 15 16 19 20 20 19 18 20 24 30 35 36 34 34 35 34 33 33 35 40 45 48 50 51 52
13 11 9 9 8 7 5 4 7 4 7 26 41 48 58 63 59 58 59 57 52 42 35 35 31 20 13 11 10 11 13 14 14 13 13 14 13 11 9 8 9 9 9 9 9 8 7 7 7 8 7 7 7 7 8 8 9 11 9 10 12 12 13 12 13 17 19 19 19 19 21 25 30 35 36 32 33 36 34 33 34 35 37 41 45 47 47 48
13 11 10 8 8 7 4 5 5 4 12 28 49 59 52 46 43 40 42 42 32 21 17 18 17 13 11 9 9 12 14 14 12 10 11 13 11 10 9 8 8 8 9 8 9 8 7 9 8 8 7 6 6 6 6 5 6 9 8 9 9 10 12 10 14 19 19 18 18 20 21 24 29 33 35 32 34 37 36 36 37 36 36 38 40 41 43 44
13 11 10 8 9 7 5 6 3 7 15 26 48 51 29 21 22 21 25 25 20 17 17 14 13 13 12 11 11 11 12 13 11 8 11 13 10 8 8 8 8 9 8 7 8 8 8 9 8 7 6 6 6 6 6 6 7 7 7 8 7 8 10 10 16 22 20 18 20 25 24 25 28 30 34 35 34 34 34 36 37 35 36 36 38 39 41 41
13 12 10 8 9 6 5 5 2 11 19 28 42 34 18 21 25 24 25 21 16 16 16 15 15 16 14 14 13 11 10 11 10 9 12 13 9 7 8 8 8 8 8 7 8 8 9 9 7 6 6 7 8 7 7 7 7 7 7 7 7 8 11 15 18 21 21 17 21 28 27 28 31 31 36 36 31 31 32 33 35 35 37 37 38 39 39 42
14 12 10 9 8 6 7 4 4 16 22 25 30 23 20 27 29 30 28 23 20 16 15 17 16 15 14 14 14 14 11 9 10 9 11 12 9 7 8 8 7 7 7 8 8 8 8 8 6 6 7 8 8 8 7 7 8 7 6 7 7 8 12 15 19 23 23 17 19 28 27 30 37 37 39 36 31 34 36 37 38 37 38 37 35 36 39 42
14 12 11 8 7 8 5 2 11 24 24 18 18 19 24 29 30 31 26 23 20 16 15 15 14 13 12 12 14 13 10 8 9 9 10 11 8 7 7 7 7 7 7 7 6 7 7 6 6 7 7 8 8 8 8 8 8 7 7 7 6 8 10 10 17 24 23 20 22 26 27 33 38 36 34 35 37 38 37 40 43 41 41 40 36 36 39 39
14 14 12 8 9 7 4 11 23 24 17 14 18 24 26 25 29 31 25 23 20 16 16 14 14 13 10 12 12 10 9 8 7 8 9 9 8 8 7 6 6 7 6 6 5 6 7 7 7 8 8 8 8 8 8 8 8 7 7 7 6 8 8 9 20 24 21 23 24 24 26 29 30 30 28 30 38 38 36 38 41 43 44 45 45 43 43 42
15 16 12 10 9 5 8 19 24 17 13 15 21 28 27 23 31 32 26 22 16 13 14 13 14 12 10 12 10 8 10 9 7 7 9 8 7 7 8 7 6 6 5 5 6 7 8 9 8 8 8 9 8 7 7 7 7 8 8 8 8 9 10 15 22 20 16 19 22 22 23 21 22 29 29 29 34 36 37 39 36 39 43 44 44 45 46 44
16 16 14 11 7 13 22 21 15 12 13 18 25 30 24 21 31 32 27 23 14 11 12 12 13 11 10 10 8 9 10 9 8 8 8 8 8 7 8 7 6 7 6 6 9 9 9 10 10 9 8 8 8 7 7 7 6 10 13 10 10 11 15 19 18 14 13 18 25 25 22 21 20 23 26 30 35 34 37 40 37 36 39 39 39 40 43 44
17 16 15 12 7 18 28 28 26 17 10 15 23 24 18 22 33 31 29 27 15 9 11 10 10 9 9 9 8 8 8 8 10 10 8 8 8 7 7 6 5 8 8 8 10 9 8 9 9 9 8 7 7 6 7 7 7 14 17 13 13 15 15 15 13 13 16 21 28 27 24 24 20 19 24 29 35 37 36 38 37 36 37 37 36 36 39 43
17 16 17 12 6 15 29 40 40 20 13 17 14 15 19 29 35 26 23 25 15 8 9 9 8 8 9 9 9 8 7 8 9 9 8 8 8 7 7 7 6 8 9 8 9 8 8 9 8 7 7 8 8 8 8 8 10 16 18 16 17 16 14 15 13 14 19 21 22 21 21 22 17 18 25 29 34 36 34 34 33 34 37 38 36 34 36 41
16 16 17 14 18 32 41 43 31 12 12 15 8 16 28 34 33 24 21 21 14 9 8 8 8 8 9 10 9 8 8 7 8 9 9 9 9 7 7 7 6 8 8 8 8 7 8 10 10 9 8 8 9 9 9 8 12 16 16 16 17 17 17 17 16 17 20 21 18 14 16 19 17 14 17 26 32 29 26 30 31 32 35 38 37 34 35 40
14 14 17 19 28 38 34 26 18 11 10 9 15 28 33 32 27 22 22 17 11 9 8 8 8 8 9 10 10 9 8 8 8 9 10 9 9 8 8 8 8 8 8 8 8 8 9 10 10 9 8 8 8 10 9 10 13 13 12 13 16 19 19 17 19 20 20 20 18 15 15 19 21 16 11 16 22 22 21 23 28 31 32 36 38 35 34 40
13 11 12 14 20 27 23 15 14 15 10 8 22 31 30 32 25 18 17 13 11 10 7 8 8 8 9 9 9 8 7 8 8 9 10 10 10 9 8 9 9 10 10 9 8 8 8 8 9 9 8 7 8 10 11 11 11 10 10 12 14 17 18 18 20 19 16 17 19 17 17 19 20 17 13 12 14 20 22 20 23 28 30 34 39 36 35 39
12 10 9 8 13 17 15 11 12 16 12 9 19 24 27 34 28 16 12 11 12 11 7 8 7 7 9 8 8 8 7 9 8 9 10 9 9 9 8 8 7 9 10 8 8 8 9 9 9 9 9 7 7 8 10 11 9 9 9 11 13 16 19 19 18 16 15 16 17 18 20 19 15 13 13 15 16 18 22 21 20 24 28 33 37 37 36 38
11 10 8 8 12 14 12 13 13 14 13 12 16 22 28 33 25 15 11 10 12 12 8 9 7 7 9 8 8 8 7 9 8 8 9 8 10 9 8 8 7 7 7 8 8 8 10 12 9 9 9 7 7 6 7 8 8 8 7 8 11 13 15 16 16 15 14 16 20 22 21 15 15 19 21 24 25 22 23 25 23 26 29 30 33 35 34 37
10 10 14 18 20 18 19 21 17 16 17 15 17 23 28 29 21 13 12 10 11 13 11 10 8 8 8 7 7 7 8 9 8 8 9 8 9 9 8 8 8 7 7 8 9 8 9 11 9 9 8 7 7 7 6 7 8 8 7 9 11 10 10 14 15 14 13 15 19 22 18 11 12 20 21 22 25 24 26 28 27 31 32 31 33 35 33 37
16 18 25 34 32 25 25 24 21 22 22 17 19 24 24 22 17 12 14 14 13 14 13 11 9 8 9 8 8 8 8 9 9 8 9 8 8 8 7 7 7 7 7 8 9 9 10 11 10 10 9 7 7 7 7 8 9 9 9 10 11 9 9 14 17 16 14 14 16 18 17 12 11 14 14 16 19 20 26 29 27 30 32 34 37 37 35 37
36 35 31 32 31 30 31 27 24 23 21 18 21 23 18 16 15 14 15 15 13 14 14 12 10 8 8 8 8 8 7 8 9 8 9 8 8 7 7 7 6 6 6 6 8 8 8 11 11 10 11 10 8 7 8 8 8 9 9 9 10 9 10 14 18 19 17 16 16 17 15 13 13 14 15 17 16 14 21 29 28 28 32 36 39 40 39 38
62 50 36 29 28 33 36 31 26 19 16 21 24 22 19 16 15 14 14 14 14 14 14 13 11 9 8 8 7 7 7 8 8 9 9 8 8 7 7 7 7 7 6 5 7 8 7 11 12 10 11 11 9 7 9 9 8 9 9 8 9 11 13 16 18 18 18 16 15 15 15 13 12 13 14 15 15 13 17 28 31 28 31 35 37 42 44 41
69 43 28 29 32 38 40 33 22 14 14 22 23 21 20 17 15 14 14 15 15 14 15 13 12 11 9 8 7 7 7 8 8 8 9 9 9 8 6 7 7 7 6 5 7 7 6 9 13 11 10 10 10 8 9 10 9 9 9 8 9 11 14 15 15 14 15 15 14 14 15 12 10 11 11 12 13 12 15 27 34 29 28 34 36 41 45 45
49 23 16 29 36 38 39 30 16 11 16 21 20 18 18 16 14 13 13 15 14 13 14 14 12 11 10 8 7 7 8 8 7 7 8 8 9 9 7 6 7 7 6 6 6 7 8 9 12 13 11 10 10 9 8 9 9 9 10 10 10 11 12 13 13 12 12 15 15 15 14 12 10 12 12 12 13 12 14 22 31 31 28 32 36 40 44 45
35 16 14 28 34 37 38 27 12 11 16 19 18 18 19 17 14 14 13 14 14 12 13 14 14 13 11 10 8 8 8 8 7 7 8 8 8 9 8 7 7 7 7 7 6 7 8 9 11 13 12 10 9 9 10 10 9 9 9 10 10 11 12 14 16 14 12 13 14 15 16 11 11 15 13 11 12 11 13 18 24 29 29 32 37 39 43 45
33 15 16 28 32 37 37 21 10 14 17 18 18 18 20 19 15 14 13 13 13 12 12 13 15 14 12 11 10 9 8 7 8 7 7 8 8 8 9 9 8 6 7 7 7 7 9 10 10 11 11 11 10 11 13 12 10 9 8 8 8 10 11 13 17 16 14 14 13 15 17 12 15 21 16 17 23 22 22 26 25 26 28 34 37 38 42 45
26 15 19 28 30 34 34 22 18 23 20 18 20 18 18 18 15 14 13 12 12 11 12 13 13 14 13 12 11 11 8 8 9 8 7 7 8 9 10 9 8 7 7 7 7 9 12 12 11 12 13 12 12 12 12 11 11 10 9 9 8 8 9 10 14 15 15 16 14 16 17 14 22 32 27 27 32 28 26 31 32 29 29 33 38 40 44 47
29 27 21 25 30 31 31 25 23 23 20 19 21 18 16 15 13 14 13 11 11 11 12 13 12 13 13 12 13 12 10 10 10 9 8 8 12 16 12 8 9 7 5 8 10 10 11 12 12 15 17 16 15 15 14 13 12 10 9 9 8 9 9 11 15 17 16 15 15 17 16 13 23 35 32 27 25 20 18 23 30 34 32 33 38 41 45 49
39 36 23 21 26 27 26 24 22 21 21 23 22 18 17 14 13 15 14 12 12 12 13 13 12 13 12 11 12 12 12 13 11 12 12 9 14 19 16 13 13 7 6 16 18 9 8 14 14 14 17 17 18 17 13 13 13 9 9 10 10 11 11 12 16 17 17 18 18 17 15 13 19 27 25 21 19 17 16 17 23 32 35 37 40 44 47 52
38 34 24 18 18 21 24 24 22 22 21 24 23 19 17 16 15 17 16 14 14 13 13 13 12 13 12 12 12 12 13 12 11 13 13 11 13 18 21 21 15 13 23 31 21 10 12 18 16 14 14 13 14 15 11 10 12 10 10 11 11 11 10 12 15 16 20 24 21 19 18 15 16 18 17 16 15 15 16 16 20 29 37 40 44 48 50 53
37 37 33 31 25 20 23 24 23 23 21 22 24 22 19 17 16 17 17 16 16 16 15 14 13 14 14 13 13 13 13 13 13 13 12 12 14 17 24 26 19 27 40 30 13 12 18 18 16 16 15 12 13 15 12 10 10 10 10 11 12 11 11 13 15 17 23 23 17 23 27 21 16 15 14 15 16 16 15 15 18 26 36 40 44 49 51 52
38 40 36 43 41 29 27 30 29 27 22 21 24 24 22 19 18 21 21 17 17 19 18 16 15 17 17 17 17 15 15 16 16 15 16 17 16 16 21 24 23 33 36 18 9 16 17 13 13 13 14 14 14 14 12 10 10 9 10 11 11 12 12 14 15 16 22 20 17 28 35 26 19 16 14 15 16 15 15 17 18 24 31 37 42 48 50 51
37 37 32 37 41 37 35 35 33 29 27 29 30 27 24 22 22 25 25 22 21 21 22 21 20 21 20 21 22 21 23 24 21 23 26 23 18 15 16 18 19 25 24 13 15 21 17 17 19 14 13 16 16 15 13 11 11 10 10 10 11 12 12 13 13 13 18 19 17 24 32 28 20 16 15 16 15 15 18 21 21 22 25 32 40 45 46 48
45 44 42 40 38 37 35 33 31 29 29 33 33 29 27 26 26 28 27 27 28 27 26 26 26 25 22 22 25 27 32 36 32 33 35 30 23 20 18 16 15 16 16 14 18 20 20 25 25 16 15 19 17 16 14 12 12 12 11 11 11 11 12 12 12 14 19 22 20 21 26 25 17 15 18 19 16 17 20 19 18 21 25 30 37 41 43 45
55 54 58 54 44 38 36 34 32 29 28 31 33 32 31 29 29 31 28 26 29 31 30 30 29 27 23 24 28 29 30 34 34 31 32 30 27 26 23 19 17 16 15 14 18 18 19 26 27 19 17 20 18 16 15 13 13 13 14 14 12 12 13 13 14 17 19 22 23 23 23 20 15 14 17 17 16 18 18 16 18 25 30 31 33 38 42 43
55 53 57 56 45 35 33 32 32 31 32 35 36 35 33 30 28 30 31 27 26 28 29 30 30 28 26 29 33 31 27 29 29 27 27 27 25 24 22 20 18 18 18 16 17 17 17 22 24 18 17 19 18 16 15 14 15 17 16 15 13 13 13 13 15 18 18 18 19 20 18 15 14 15 16 16 15 16 18 22 27 31 34 37 37 39 41 43
Wind_Speed
23 24 24 24 24 25 25 25 25 25 25 25 26 26 26 25 23 20 19 17 17 16 16 17 17 15 14 13 11 9 8 6 6 7 11 12 8 8 4 9 18 13 11 12 13 13 11 12 11 11 9 6 5 3 5 4 3 3 4 3 4 4 6 6 5 5 6 9 10 10 7 7 8 8 7 7 10 10 9 6 6 6 7 12 18 24 24 21
24 24 25 25 25 25 25 26 26 26 25 26 27 28 28 27 24 21 19 17 17 16 16 16 15 13 12 11 9 7 6 6 8 14 19 18 11 10 7 8 17 16 12 13 14 14 11 11 12 13 8 4 4 3 5 4 4 4 2 3 4 6 7 6 6 5 4 9 10 9 6 6 7 8 6 4 8 9 7 8 10 12 12 15 21 24 23 22
24 25 26 26 25 25 25 26 26 27 26 27 28 29 29 28 24 20 18 17 15 15 15 14 12 11 10 8 6 4 4 6 11 14 16 18 14 12 11 9 14 17 13 10 12 13 8 6 11 12 7 4 3 3 5 4 3 3 3 3 6 7 8 5 5 5 4 9 11 9 7 6 7 6 3 2 6 7 6 8 10 13 14 16 19 21 22 22
25 26 26 27 26 25 26 26 27 27 27 28 29 30 30 28 23 19 18 16 13 13 12 11 9 9 7 5 4 2 3 7 10 6 6 13 16 15 13 13 15 15 11 8 8 9 7 5 8 8 7 4 3 4 5 4 2 2 2 5 9 6 8 6 5 6 6 9 10 9 8 8 7 4 2 1 4 4 6 7 9 14 17 18 19 20 21 20
25 26 27 27 27 26 26 26 27 27 28 28 29 31 30 27 23 20 17 14 11 10 9 8 8 6 3 2 3 1 4 6 2 5 5 10 16 18 16 14 16 14 10 8 7 8 8 7 8 7 6 4 6 6 5 4 3 2 4 8 8 4 8 8 6 8 8 9 10 9 8 9 8 6 6 4 3 5 6 6 11 15 17 18 19 19 19 19
26 27 27 28 27 27 26 26 27 28 28 28 30 30 28 26 24 20 16 11 8 7 7 6 5 3 1 1 2 2 5 3 4 3 3 5 12 20 20 15 15 14 11 9 9 9 8 8 8 7 5 4 6 6 7 5 5 3 6 7 6 5 9 9 8 10 9 10 9 8 8 9 9 9 10 10 10 9 9 10 14 16 17 18 19 18 18 17
26 27 27 28 28 27 27 26 27 28 28 28 30 29 27 25 23 18 12 7 6 6 5 6 4 2 3 3 3 4 9 5 3 0 1 3 8 16 21 17 15 14 12 11 10 8 8 10 9 5 5 5 5 5 7 7 5 3 8 7 6 9 11 9 8 10 10 11 10 9 8 8 9 10 10 12 13 12 13 14 16 17 18 18 17 16 16 16
26 27 27 28 28 28 27 27 26 27 28 29 29 28 25 23 20 14 7 4 5 5 6 6 4 4 5 2 1 5 10 5 1 2 3 2 8 14 19 18 15 13 12 11 9 7 7 9 8 5 5 4 4 6 8 8 5 6 9 8 8 10 11 10 9 11 13 11 10 11 10 10 12 12 11 12 12 13 14 14 15 16 16 16 15 15 14 14
26 26 27 28 29 29 28 27 26 27 28 29 28 26 23 20 16 9 3 3 5 6 6 6 4 6 6 3 6 7 5 2 4 7 6 3 10 16 19 17 16 14 11 8 7 6 6 7 6 4 3 4 3 7 9 7 5 7 10 10 10 12 11 10 10 12 13 9 10 12 13 13 13 11 11 11 12 13 14 15 14 15 15 14 13 14 13 13
26 26 27 28 29 29 29 28 27 26 27 28 27 23 20 17 12 5 2 3 4 6 5 5 5 8 6 3 7 6 3 4 3 6 4 6 15 20 19 16 16 15 10 8 7 6 5 4 4 2 3 4 3 6 6 5 7 9 12 12 12 13 10 10 11 13 12 10 11 12 13 12 8 6 8 10 11 13 15 15 14 13 13 13 13 13 13 13
26 27 27 28 29 29 30 29 27 26 26 28 26 21 17 13 8 3 1 2 5 5 3 4 8 10 4 6 8 4 4 4 0 2 3 11 19 20 17 14 15 14 10 8 6 3 1 3 4 2 3 4 5 7 5 7 13 13 13 13 12 13 10 10 12 11 10 10 12 13 14 11 6 6 10 11 11 12 14 14 13 13 12 12 13 12 11 11
27 27 27 28 29 29 30 29 27 25 25 27 24 18 14 10 5 2 1 2 4 3 3 7 10 8 2 7 9 1 5 2 0 3 7 13 15 13 11 12 12 11 10 9 7 3 1 3 4 4 2 4 6 8 7 10 13 13 13 12 12 12 11 9 9 9 9 9 9 9 11 10 9 10 13 12 10 12 13 13 13 12 11 11 12 10 9 10
27 28 28 28 28 29 30 29 28 26 24 26 23 16 11 7 4 1 1 2 2 1 6 8 8 4 4 6 6 5 2 2 3 7 9 10 10 9 11 11 9 6 7 9 8 4 1 1 4 1 3 1 3 7 7 9 11 12 10 9 10 10 9 8 7 8 9 7 4 2 3 8 10 12 12 11 11 11 12 12 12 11 11 10 10 9 9 10
28 28 28 28 28 29 30 29 29 26 24 25 20 13 9 5 3 2 1 2 1 3 6 6 4 2 6 1 4 7 7 1 5 9 8 9 10 10 11 10 8 6 5 7 7 3 1 0 3 4 2 1 6 9 9 9 9 9 7 7 8 6 8 9 8 8 8 6 2 4 1 8 10 12 12 11 11 11 11 11 11 11 10 10 9 9 9 10
29 29 29 28 28 28 29 30 29 26 25 24 17 11 7 4 3 2 1 1 1 4 4 2 3 3 6 2 5 3 4 3 8 11 9 11 13 12 11 11 9 7 6 7 5 2 1 2 4 6 5 4 9 11 9 8 7 7 7 8 7 5 8 10 8 7 5 5 2 5 3 8 8 12 13 11 11 10 10 10 11 11 10 10 9 9 8 9
30 30 30 29 28 28 29 29 29 27 25 21 14 10 6 4 4 3 2 1 3 4 3 2 4 5 6 2 5 3 4 5 8 10 11 11 10 12 14 13 11 9 7 6 4 2 3 3 1 4 6 8 9 9 8 7 6 7 7 7 8 6 7 8 9 9 4 3 3 3 2 7 8 11 12 11 11 10 9 10 10 10 10 9 8 8 7 8
30 30 31 29 28 28 28 29 29 27 25 19 12 8 6 5 4 2 2 2 2 3 2 4 2 5 4 4 5 6 7 7 8 10 11 9 6 12 17 13 11 11 9 7 4 4 5 4 3 4 6 7 8 8 8 8 7 7 8 6 9 9 7 7 8 9 7 5 4 2 1 6 10 12 12 12 12 10 9 9 10 10 9 8 7 7 7 7
30 31 31 30 29 28 28 29 29 28 24 16 9 7 6 5 2 2 2 0 0 2 3 5 4 5 3 7 7 7 10 9 10 10 10 8 8 13 15 12 11 12 11 8 6 7 6 6 6 7 8 7 8 9 8 8 8 9 8 6 8 8 8 7 6 8 10 7 4 3 3 8 12 12 11 12 11 10 9 9 9 9 9 9 7 7 7 8
31 31 31 31 30 27 27 29 28 28 23 13 8 7 6 5 3 3 4 4 3 4 3 3 7 3 2 10 8 7 9 10 11 11 11 10 11 13 12 12 13 13 11 9 8 9 7 6 7 7 8 9 10 11 10 8 10 12 11 9 9 9 9 8 5 7 10 7 5 5 4 9 12 12 11 12 11 9 9 9 8 8 8 8 8 8 8 8
31 31 31 32 30 27 27 27 28 27 19 8 5 6 4 4 3 2 5 7 8 9 8 4 9 5 2 9 9 9 10 11 11 11 13 12 13 13 11 13 14 12 11 10 10 8 6 8 9 8 10 12 13 13 10 6 7 11 12 10 11 10 9 9 6 6 9 7 6 6 4 8 11 12 11 11 11 9 8 9 8 8 8 8 9 9 9 8
32 31 31 32 31 28 26 26 28 24 14 5 4 5 3 5 5 4 3 7 10 10 11 7 8 7 2 4 8 11 11 10 11 12 14 13 15 14 12 13 13 11 11 10 9 6 6 9 11 12 11 10 11 10 6 4 6 9 10 9 9 9 7 9 8 7 8 7 5 6 6 8 11 11 11 10 11 10 9 10 10 10 10 8 9 10 9 8
32 31 32 33 32 29 25 26 28 19 8 3 4 7 3 5 4 4 4 8 7 8 10 8 7 8 6 4 5 8 11 12 12 14 13 13 15 13 12 14 14 11 11 9 7 7 9 10 13 14 7 5 6 7 8 8 8 9 9 8 8 6 4 7 9 7 8 6 4 8 8 8 10 9 10 10 10 9 9 9 9 10 10 9 9 9 9 8
32 32 33 32 33 30 24 26 25 12 4 4 7 8 3 3 3 3 5 7 8 7 9 10 10 9 8 8 7 9 12 13 14 15 15 14 14 12 12 14 14 12 12 12 9 8 9 11 12 11 7 7 8 8 10 9 8 9 8 8 7 8 7 6 8 9 8 6 5 7 8 6 9 8 9 9 8 8 8 8 8 8 9 10 10 9 9 9
33 33 32 32 34 30 24 26 17 3 3 8 11 9 3 3 3 4 5 6 6 5 7 8 8 8 9 8 10 14 13 12 14 16 18 17 12 10 12 15 15 12 12 14 14 11 9 8 9 10 9 12 11 10 11 9 8 9 9 9 7 9 12 9 8 11 8 7 6 8 8 5 8 10 10 9 7 8 9 9 9 8 8 8 9 9 9 9
33 33 33 33 34 30 25 18 4 2 10 11 10 7 4 5 4 5 5 5 5 4 6 7 5 6 8 9 13 16 11 10 13 15 19 19 14 10 9 11 11 11 14 17 15 12 7 8 9 10 10 13 12 12 13 11 8 8 10 12 9 6 11 8 11 11 7 7 9 10 8 5 8 11 11 10 9 10 10 11 11 10 10 9 9 9 9 9
34 34 34 33 33 33 22 6 1 11 15 7 3 4 5 8 5 7 4 4 5 4 8 7 6 9 11 10 15 14 11 10 10 14 19 17 14 10 8 8 7 10 15 15 11 6 5 7 7 10 11 13 13 12 13 12 9 6 7 8 7 7 7 9 13 11 7 6 8 10 8 5 7 10 12 12 12 13 11 12 13 12 11 11 10 10 10 10
34 33 34 32 32 31 16 4 10 16 9 2 3 4 6 10 6 7 4 4 4 5 7 4 4 9 11 13 17 12 9 11 9 14 18 15 13 8 7 10 7 7 9 9 8 5 6 9 8 8 11 14 13 10 11 12 9 1 4 4 5 7 8 11 12 9 5 3 6 10 9 6 5 7 11 14 14 14 14 14 14 13 13 13 13 12 12 11
34 34 34 32 31 26 12 10 14 11 6 1 3 6 9 10 8 7 5 4 3 3 4 4 3 6 7 14 19 9 7 16 12 12 17 16 14 8 9 14 12 9 11 9 7 7 9 11 11 12 12 11 8 6 10 9 6 2 5 5 5 6 8 9 9 5 3 3 6 8 7 7 7 4 8 13 14 15 16 17 16 16 15 15 15 15 14 13
34 34 33 33 32 23 12 10 10 7 6 3 3 6 9 8 8 5 4 3 2 3 3 4 4 7 8 13 17 9 7 14 10 10 15 15 12 7 7 11 12 12 14 13 6 8 8 6 8 12 11 7 5 8 7 4 2 5 7 8 7 5 5 4 5 3 3 6 8 9 9 7 7 5 7 10 12 14 16 16 17 17 17 16 16 16 15 13
34 33 33 33 28 16 8 10 14 12 9 8 5 6 6 6 6 6 5 2 1 3 3 3 5 10 14 15 14 11 10 11 8 12 14 12 12 8 4 3 7 9 12 12 6 6 7 2 2 6 3 6 12 11 5 4 8 11 9 8 7 5 4 2 2 2 4 7 7 8 10 8 8 5 6 8 11 13 13 14 15 17 18 17 16 16 16 14
34 33 31 31 24 12 7 7 9 8 8 8 4 3 6 5 5 7 5 1 1 4 6 7 8 12 18 18 13 12 13 10 11 15 13 11 13 10 5 5 6 7 10 10 6 7 8 5 5 3 2 8 13 10 6 8 12 11 7 7 6 4 4 4 3 4 6 6 3 3 7 9 9 6 5 6 9 12 11 11 15 19 20 18 17 16 16 14
34 32 29 28 22 16 12 7 3 3 6 2 4 5 5 5 7 7 4 3 2 6 7 8 10 13 18 18 14 13 13 11 13 16 14 12 11 10 10 9 9 9 9 10 9 9 10 8 8 6 4 9 12 9 5 7 10 8 6 7 6 4 5 5 5 5 7 4 3 2 5 8 8 8 10 9 7 9 9 9 12 16 19 19 18 17 15 14
34 32 29 25 20 19 19 13 10 9 5 6 6 6 5 7 7 5 6 4 2 2 3 6 11 14 16 16 13 13 12 11 14 16 15 14 11 12 13 11 11 11 9 10 11 10 9 7 9 9 6 8 11 9 7 7 8 9 8 7 6 5 6 7 6 6 7 4 4 3 3 6 8 7 9 9 6 6 8 8 9 10 15 18 18 17 15 15
33 30 26 23 19 18 18 14 13 14 11 9 6 6 7 9 6 3 7 5 2 2 2 4 10 14 15 14 12 14 11 10 15 16 15 14 11 12 13 10 12 11 7 10 10 10 9 7 11 11 7 11 12 8 9 9 9 9 8 7 7 6 6 6 5 6 7 4 5 4 3 6 6 1 3 1 2 0 4 7 7 7 9 12 16 17 17 16
32 28 22 17 14 10 8 10 11 10 10 8 6 7 8 8 6 5 6 3 2 4 3 4 8 13 14 11 11 15 9 7 14 14 13 14 11 11 12 11 12 10 6 8 7 8 9 7 11 7 5 15 13 4 7 10 8 6 4 6 6 5 5 3 3 4 5 3 4 5 4 6 4 1 4 4 2 3 4 6 8 8 8 9 13 16 17 16
30 25 15 10 8 4 5 6 12 11 7 8 8 7 8 7 5 3 1 1 0 1 2 6 9 11 12 9 10 14 8 4 13 13 10 14 13 13 14 11 13 13 9 7 6 6 7 6 12 9 5 11 10 6 7 6 4 6 5 6 1 3 3 3 1 1 3 7 4 4 5 6 5 5 6 5 5 6 7 9 10 10 10 11 11 14 16 16
27 19 9 6 6 7 9 5 15 13 6 8 9 7 7 8 6 4 3 2 1 2 4 7 9 9 12 10 10 15 12 8 13 12 9 13 12 13 14 11 12 15 13 9 5 6 7 5 11 12 8 5 4 7 8 1 1 4 6 6 5 3 3 4 4 3 5 7 3 4 8 7 4 3 5 7 6 7 7 9 10 10 11 12 12 12 15 16
19 12 6 4 4 9 9 9 17 12 6 8 10 8 7 6 4 4 4 5 4 3 6 6 6 8 11 10 11 16 14 11 13 12 10 11 9 11 14 10 10 14 15 13 7 5 8 5 7 10 9 7 6 8 7 3 3 4 2 7 5 4 5 5 5 5 5 7 4 4 6 6 6 3 3 5 5 4 5 8 10 11 13 13 12 13 15 16
12 8 3 1 6 8 8 16 15 9 7 9 10 8 7 7 6 5 5 6 6 4 6 5 3 6 9 9 11 16 15 12 13 12 10 9 9 10 13 11 10 14 16 14 9 6 8 7 5 7 8 9 8 9 8 8 6 3 2 6 6 5 3 4 4 4 5 6 6 3 4 5 5 2 1 2 3 4 4 6 9 11 13 13 12 13 14 15
8 6 1 7 7 3 15 16 10 7 8 9 8 6 6 7 7 5 4 4 6 5 4 3 2 5 8 8 8 11 14 14 13 12 10 10 9 8 10 10 10 12 13 14 12 7 5 7 4 6 8 8 9 9 9 9 10 8 7 8 7 4 2 3 4 4 5 5 5 4 5 4 2 4 1 3 3 3 4 5 7 9 11 12 12 13 13 14
5 4 1 7 5 9 12 9 8 7 9 9 8 7 5 4 5 5 4 4 6 6 5 6 6 5 5 7 7 8 11 12 12 10 9 11 10 7 7 9 10 10 10 11 12 9 6 6 5 6 8 9 10 8 4 4 7 11 9 9 10 7 5 5 5 4 3 5 5 4 6 5 4 5 3 3 3 4 4 5 6 7 9 11 12 14 14 14
5 3 1 5 3 6 4 6 8 6 8 7 5 4 3 2 5 6 4 4 6 6 6 6 6 6 5 5 5 7 10 10 12 11 9 10 12 8 5 5 9 12 10 10 12 9 5 6 7 8 7 5 5 5 2 3 3 7 8 9 10 8 8 8 6 4 4 4 4 4 7 4 5 6 4 2 2 2 2 4 5 5 8 10 12 14 14 14
4 4 1 2 2 5 6 7 7 6 8 3 2 3 3 3 5 5 4 5 5 5 5 6 6 6 5 3 3 7 11 10 10 11 10 11 10 4 6 6 8 11 10 10 11 7 3 6 9 7 4 4 5 5 3 1 3 7 8 9 9 9 10 7 3 2 4 4 4 5 7 3 4 4 2 2 1 3 3 4 5 5 6 9 12 13 13 14
4 5 2 1 2 5 6 6 6 8 8 4 3 6 5 4 5 5 5 4 4 4 5 6 5 4 3 2 3 6 8 6 8 9 7 9 5 5 7 9 8 10 10 6 6 7 6 7 9 7 6 6 5 5 6 5 6 9 10 11 12 11 9 5 1 2 5 7 7 6 7 3 4 3 2 3 4 5 5 5 5 5 5 7 10 11 13 13
4 3 3 3 4 6 6 3 3 6 7 7 7 7 6 4 2 2 4 4 3 5 6 4 3 4 4 3 3 4 4 3 5 5 3 5 5 4 4 7 6 10 8 1 2 8 8 7 8 9 9 10 9 8 9 8 8 10 11 12 14 14 12 8 5 5 6 6 7 7 8 4 3 6 4 4 5 6 6 6 5 5 6 5 7 9 11 12
4 2 2 3 4 5 4 3 4 5 4 6 6 5 6 6 3 2 3 4 2 4 6 5 5 6 5 6 6 7 7 4 2 4 6 7 6 4 3 4 7 8 3 4 2 8 5 5 10 11 11 10 9 7 10 11 11 12 15 16 16 17 16 11 8 7 5 4 6 8 9 9 6 4 4 2 4 6 6 7 7 6 7 6 6 8 10 10
3 2 1 0 2 4 4 3 3 4 3 3 3 2 4 6 4 3 3 2 0 3 5 5 5 6 4 6 7 7 8 6 4 5 7 6 5 6 4 4 7 6 3 3 8 7 3 6 12 14 14 11 6 4 8 13 14 14 17 17 16 17 16 14 11 7 4 5 7 5 7 11 13 10 8 6 6 8 8 8 8 6 6 7 7 9 10 11
2 2 2 2 2 2 2 0 2 3 3 3 2 1 3 5 4 2 2 1 1 2 3 5 4 3 3 3 5 6 8 8 7 6 5 4 5 7 7 5 6 7 6 8 9 6 5 9 11 14 15 10 4 4 7 11 12 13 15 15 16 17 16 16 15 10 6 8 9 2 6 9 12 11 11 9 7 9 10 8 8 6 6 8 9 10 11 12
2 1 2 2 3 2 2 3 4 3 3 2 2 2 3 3 1 1 1 2 3 1 3 3 2 4 5 4 5 4 5 4 6 4 1 2 6 7 7 6 5 7 8 8 7 4 5 5 6 10 12 8 5 6 8 10 11 12 14 14 15 17 17 17 15 11 9 11 10 4 4 8 11 12 11 9 7 8 8 8 9 9 9 8 10 11 12 13
3 3 3 3 2 2 3 2 3 3 3 2 2 2 2 1 1 2 2 2 1 2 5 4 4 7 5 2 3 1 4 5 2 1 5 2 3 3 4 3 3 6 9 7 6 5 4 3 3 7 9 7 6 7 8 10 11 11 12 12 14 14 14 14 12 8 8 9 8 8 8 9 10 9 6 5 6 6 8 10 12 11 9 8 11 12 13 14
5 2 3 5 2 1 2 1 2 3 3 2 2 1 1 1 3 2 1 3 5 5 6 7 6 6 1 3 4 5 7 8 6 5 6 5 3 3 1 1 4 2 8 7 6 6 6 3 3 7 8 6 6 8 9 9 10 11 11 11 13 13 11 10 8 7 8 8 7 8 9 8 6 5 5 7 9 9 12 13 11 9 7 8 11 12 12 13
7 2 3 5 1 1 2 1 2 3 2 2 2 2 1 2 3 3 2 2 2 4 6 8 7 4 2 4 6 8 9 9 8 7 6 5 6 5 4 4 6 4 3 5 5 6 6 5 5 7 9 6 8 9 9 9 10 10 10 12 13 12 10 9 8 7 7 7 7 7 7 6 6 6 8 10 11 11 12 10 8 7 7 8 10 10 11 12
Wind_Direction
2 360 359 358 359 356 355 354 354 353 351 349 345 340 336 331 325 316 311 309 309 309 307 303 298 293 288 283 282 284 288 289 268 246 240 246 237 222 218 190 188 170 151 150 157 164 168 190 196 189 191 197 220 212 168 208 240 224 233 164 113 97 102 114 119 87 107 129 136 147 149 127 125 122 122 128 117 120 122 105 102 103 98 103 119 133 140 148
359 357 356 356 356 355 353 352 352 351 350 348 343 339 334 329 322 314 307 305 304 305 305 302 295 289 282 278 280 280 290 288 253 254 249 245 245 220 200 177 181 173 159 164 176 183 186 188 184 186 200 211 193 173 163 185 217 232 251 110 86 82 93 92 102 100 113 124 130 141 140 121 120 126 157 165 122 127 117 111 119 113 111 114 125 136 140 149
357 355 353 353 354 354 352 350 349 349 348 346 342 338 334 329 322 311 304 300 301 303 303 297 291 284 278 276 272 266 299 289 255 255 253 243 236 210 197 180 169 167 170 184 195 205 220 190 179 191 216 228 178 177 181 174 190 231 273 99 87 89 102 92 106 112 87 113 128 128 121 109 108 126 174 176 134 142 128 127 134 129 135 135 135 140 144 153
355 353 350 350 350 351 351 349 348 347 347 344 341 338 333 329 323 313 302 296 298 300 298 292 287 283 281 271 241 234 295 270 249 228 220 228 221 205 199 182 169 170 180 208 214 216 238 204 188 210 237 224 164 194 180 158 191 215 315 85 99 108 108 92 100 106 94 113 126 125 124 111 104 107 101 147 159 137 112 127 143 142 146 145 143 145 150 157
353 351 349 348 348 349 349 348 347 346 346 343 341 338 334 330 325 318 304 294 295 294 291 284 284 287 281 240 206 185 263 246 184 119 163 206 205 202 202 186 177 177 185 211 214 213 223 209 202 217 238 213 169 192 157 146 222 132 63 78 99 112 101 94 93 100 108 119 124 126 121 114 109 82 60 41 58 67 63 100 132 141 147 148 147 150 155 160
352 350 348 347 346 347 347 347 346 345 345 343 341 338 334 330 327 321 305 291 286 282 280 275 283 289 200 180 168 174 242 236 77 89 165 177 185 193 199 192 177 178 191 207 210 214 211 205 212 210 213 199 181 181 129 147 229 139 100 91 92 94 99 101 105 112 122 120 118 119 114 119 112 82 64 56 58 63 65 95 123 135 144 148 149 154 159 164
351 350 348 346 346 345 346 347 346 345 345 343 341 338 334 331 329 324 309 284 269 263 262 259 263 231 162 98 91 180 239 258 56 86 221 158 171 185 193 189 177 181 196 206 210 212 205 207 211 208 196 178 171 155 130 157 210 138 114 109 96 97 103 108 118 123 116 109 110 116 118 113 102 91 78 71 72 77 86 103 122 132 143 148 152 160 164 167
350 350 349 347 346 345 344 346 346 346 344 343 342 338 334 332 331 329 312 269 255 246 247 247 233 199 165 134 192 215 230 242 66 277 290 210 170 174 181 182 182 188 202 210 214 204 207 212 198 207 204 162 153 148 146 159 155 119 117 118 110 104 109 117 122 119 109 109 112 111 106 92 94 97 84 82 87 92 101 114 124 133 143 150 156 162 164 168
350 350 350 348 346 345 343 344 346 346 344 343 342 339 334 333 334 335 309 259 252 251 251 243 215 186 168 190 253 236 209 202 251 264 286 213 171 169 172 177 183 191 201 204 214 213 218 209 189 221 186 124 160 156 165 174 124 114 127 128 123 114 118 124 120 113 108 110 112 112 109 102 107 104 86 88 99 106 113 120 127 137 145 151 157 160 163 170
350 351 351 349 347 345 343 343 345 346 345 342 341 338 334 333 334 340 313 274 270 271 257 235 192 172 172 223 240 225 121 73 247 254 269 188 169 166 174 183 184 189 192 186 202 216 223 190 160 216 138 126 168 156 184 185 118 124 131 125 123 119 121 124 116 110 105 108 113 114 111 112 128 127 102 104 112 118 121 125 133 140 145 151 153 155 163 169
351 351 351 351 348 345 343 342 343 345 345 342 341 338 335 335 335 350 0 309 302 291 249 195 171 165 197 243 227 201 95 59 319 235 196 170 165 169 182 185 184 190 186 180 188 190 214 142 150 210 169 152 147 127 125 125 124 132 128 122 123 121 122 128 123 114 110 113 114 114 113 114 121 110 112 123 128 127 125 128 137 139 141 148 149 151 163 169
350 350 351 351 348 346 343 341 342 344 345 342 340 338 337 337 336 338 356 339 322 296 164 155 157 155 223 237 228 208 69 38 248 138 147 158 165 175 182 179 184 194 189 180 169 161 76 121 200 239 139 161 152 121 119 129 134 140 135 128 130 129 127 135 132 122 127 125 120 128 121 107 100 104 117 131 136 134 132 133 137 137 138 144 148 150 161 170
349 349 350 350 349 346 343 341 341 342 344 343 339 337 336 337 333 317 349 351 331 180 147 149 145 147 242 226 212 231 302 340 171 146 145 158 167 170 171 173 180 190 197 180 151 147 118 108 254 249 89 183 134 110 135 151 150 151 150 141 144 146 137 146 147 133 139 131 119 183 119 97 108 119 128 139 144 142 138 138 140 140 142 146 150 152 159 168
349 348 349 349 349 347 343 341 340 340 343 343 337 333 336 338 322 310 324 343 302 178 162 164 149 182 253 202 118 216 244 278 175 170 166 166 158 155 162 168 169 166 171 153 133 136 129 335 250 148 92 7 117 127 139 155 163 159 163 160 167 169 146 155 162 156 157 133 149 258 88 98 120 129 135 146 152 152 144 143 146 145 147 149 152 157 158 166
349 347 347 348 349 347 344 341 340 339 341 342 335 328 328 320 306 302 300 328 206 188 173 189 183 216 251 180 110 201 218 183 185 182 177 168 157 152 158 162 157 146 135 126 121 124 137 222 212 151 118 115 148 157 146 158 173 165 180 176 179 181 151 160 172 179 173 126 193 275 78 104 124 134 140 150 158 162 151 145 151 151 155 156 158 164 160 165
348 346 345 346 348 347 344 341 339 337 339 340 331 320 313 304 300 290 294 260 200 178 163 207 194 238 270 146 124 166 180 181 177 172 177 176 170 158 153 150 147 145 132 117 122 148 171 211 211 126 139 155 169 169 154 169 178 184 207 181 172 187 162 164 178 184 192 149 182 275 86 115 130 139 141 151 162 167 158 151 156 156 159 163 165 169 168 169
348 345 344 343 346 346 343 341 338 336 337 337 329 317 300 295 291 294 314 248 214 164 199 276 238 245 274 108 142 183 176 171 159 163 174 185 194 161 150 150 151 149 135 127 148 174 181 187 153 143 174 184 180 174 178 187 178 193 218 187 174 186 171 164 174 177 190 197 178 200 126 110 127 145 147 153 164 169 163 158 160 159 162 171 176 176 178 179
347 345 342 341 343 345 342 340 338 334 334 333 326 312 292 279 280 324 326 231 230 180 233 272 244 243 206 162 179 165 154 160 160 164 168 178 187 163 158 160 153 152 152 152 171 186 187 184 183 183 184 193 190 188 200 195 182 193 204 191 178 184 185 177 167 171 184 199 194 196 155 120 134 149 150 155 165 172 168 162 163 163 165 173 181 184 184 184
346 344 342 339 340 343 341 339 337 334 331 330 327 311 276 247 248 252 228 205 209 234 255 187 199 259 116 164 167 126 141 154 155 164 165 165 171 167 167 161 157 166 171 169 180 190 194 185 197 199 182 188 197 203 217 206 190 194 198 193 182 185 196 188 164 168 185 201 208 207 166 142 149 151 154 157 161 175 172 164 167 166 168 175 183 187 183 185
346 344 341 337 337 340 341 338 336 333 327 325 328 301 263 264 279 216 205 219 230 258 289 227 208 255 102 153 148 125 142 157 164 171 167 165 166 167 167 163 168 179 184 182 175 177 201 199 198 202 193 192 198 209 231 238 198 195 200 199 193 195 193 185 177 168 187 211 201 199 186 157 157 153 157 158 158 177 178 168 174 173 174 177 181 185 182 185
345 343 341 337 334 337 340 337 334 331 322 326 306 272 301 347 336 347 321 259 236 243 264 248 228 252 251 155 153 150 157 170 183 176 168 173 173 169 167 172 179 183 193 190 160 156 208 213 202 203 201 191 196 207 222 236 210 202 205 205 206 210 189 174 182 172 186 218 192 185 201 169 160 156 155 162 166 175 180 177 180 177 178 180 183 185 184 188
344 343 341 336 332 335 339 335 332 326 313 330 278 265 319 3 332 318 309 287 260 229 238 238 231 245 241 211 182 177 180 179 180 173 170 181 184 179 172 179 188 182 183 186 164 169 200 216 208 199 184 138 168 199 207 213 211 208 206 208 213 202 157 157 178 177 180 215 197 186 204 170 158 160 159 173 176 169 177 183 183 181 180 184 187 188 187 189
343 343 340 336 331 333 338 333 329 318 294 314 280 278 319 343 309 247 234 284 283 226 215 221 219 217 206 203 193 191 194 182 177 173 172 185 191 187 178 184 195 183 177 191 192 188 198 213 203 177 150 159 175 189 205 215 214 216 208 211 214 177 176 192 181 179 184 213 220 194 203 173 159 170 169 180 180 165 172 180 187 193 192 192 192 192 193 192
341 342 340 337 330 330 338 333 324 283 294 300 274 272 290 311 296 229 235 279 275 220 203 211 219 213 193 180 175 187 197 186 181 172 172 187 187 183 188 193 196 185 184 197 199 202 196 177 158 150 164 187 188 186 201 214 208 217 219 226 231 186 208 229 172 168 183 207 220 200 201 190 180 189 182 180 183 176 177 182 192 200 204 206 201 198 199 198
340 341 339 337 330 329 335 334 321 274 312 294 261 240 241 306 289 228 259 273 242 198 179 192 211 206 178 154 165 184 194 187 187 172 173 189 182 174 191 196 202 194 188 194 200 205 173 123 133 158 177 191 196 195 203 216 209 204 214 231 256 239 231 218 159 165 194 203 205 204 214 210 194 201 193 180 186 189 185 189 196 198 201 209 210 207 204 201
339 339 339 337 331 329 334 341 346 324 310 282 213 196 242 307 284 220 254 272 229 161 154 179 186 170 163 161 168 181 192 187 185 168 174 192 187 184 193 185 211 208 187 187 202 212 141 125 157 174 180 190 202 202 196 212 224 197 192 214 249 255 225 185 169 187 218 207 192 205 230 233 195 203 200 189 191 194 193 200 203 198 198 205 210 209 204 200
337 337 337 335 332 333 334 302 315 318 301 221 158 210 274 305 263 212 244 260 220 155 146 164 172 165 166 167 168 182 182 156 154 164 176 191 184 194 211 185 197 206 176 178 201 201 154 159 175 183 191 193 204 205 186 209 235 183 106 163 203 216 195 183 192 206 213 176 180 202 223 242 228 213 200 195 197 198 198 204 207 203 201 204 207 207 204 200
335 335 335 332 330 329 312 282 302 303 283 303 209 240 294 296 238 212 259 262 191 138 150 136 127 168 169 166 174 188 140 139 157 173 177 187 184 199 215 192 192 178 164 186 188 156 167 179 177 182 194 195 200 175 157 195 236 65 85 130 155 188 188 189 201 202 181 194 207 203 209 240 244 212 191 198 203 207 208 207 207 206 204 203 205 206 204 200
333 333 333 330 326 324 310 276 275 270 265 265 239 279 297 269 232 225 258 261 168 146 168 146 151 173 164 168 184 195 145 154 171 161 165 185 195 221 228 194 193 170 171 212 212 136 161 188 184 192 197 178 115 93 119 171 178 112 113 116 117 142 165 187 211 196 192 222 228 203 199 241 251 201 185 204 212 214 212 210 208 205 204 204 205 205 204 200
330 330 331 329 323 323 318 271 265 271 253 240 275 305 274 234 233 229 215 229 192 143 141 168 169 167 166 172 186 194 183 173 153 146 166 183 190 217 258 198 200 172 175 217 228 126 131 109 194 214 205 121 100 85 78 90 126 140 134 123 121 127 137 180 214 197 216 228 230 202 196 231 262 231 192 203 220 224 217 211 208 205 205 204 203 204 202 199
327 327 329 325 314 302 291 266 277 278 227 232 292 278 234 223 238 237 204 180 251 153 156 180 168 162 174 179 182 189 189 173 152 160 175 180 184 200 202 180 201 187 180 198 186 142 148 154 164 168 124 124 113 97 89 115 141 156 154 152 146 134 161 186 174 197 235 229 201 186 202 223 249 260 235 212 217 227 228 217 207 205 205 203 201 203 200 197
325 326 324 317 303 275 253 235 236 184 169 241 292 230 231 229 228 235 199 144 180 176 173 182 174 172 182 184 181 184 184 172 167 171 176 181 184 191 193 185 183 184 185 184 171 163 169 160 139 133 157 160 139 120 116 141 165 180 177 178 183 174 185 204 193 208 239 222 129 147 213 229 246 256 260 264 241 222 226 229 217 207 204 200 198 200 197 195
325 325 320 312 295 266 255 246 229 215 223 298 272 222 243 245 227 218 206 189 127 157 177 179 183 181 183 187 181 180 181 173 175 178 180 187 186 186 200 202 191 195 195 182 177 172 165 144 143 151 166 186 179 166 161 168 187 197 191 194 208 199 201 222 215 224 245 215 129 128 203 247 262 250 247 266 274 235 220 225 227 215 209 203 197 197 196 194
324 324 320 310 294 273 260 247 229 228 246 272 250 211 233 246 236 209 217 216 104 147 184 175 187 184 188 194 178 174 182 172 175 182 180 187 193 189 197 206 208 217 206 184 188 185 178 167 172 170 162 185 194 189 183 182 190 201 200 207 224 224 225 235 229 236 246 202 138 140 196 244 262 206 165 205 23 319 223 219 223 219 215 210 200 197 195 193
325 327 322 305 292 280 255 228 210 212 226 234 226 214 228 238 234 223 216 204 155 183 173 172 193 190 190 196 177 177 193 178 179 188 185 190 198 191 191 194 205 222 209 184 187 191 198 178 159 145 146 182 188 179 188 194 190 190 203 219 233 245 231 247 312 294 289 273 191 183 218 245 263 234 174 181 178 194 206 212 218 218 215 212 207 202 196 191
328 329 318 281 266 280 297 227 186 183 204 220 218 214 225 239 247 259 239 83 86 209 186 186 197 199 190 188 183 185 201 198 184 190 193 197 202 198 196 189 193 211 214 191 172 186 212 160 137 130 135 182 191 162 175 218 194 166 202 214 190 356 257 233 275 279 280 275 237 191 235 241 246 248 204 196 237 230 213 211 215 217 213 210 211 208 201 192
328 325 299 251 240 263 291 232 175 179 210 225 224 220 227 242 262 295 323 323 292 282 253 204 192 204 197 188 190 188 190 189 186 191 193 196 203 202 199 191 189 205 216 215 201 194 212 163 143 163 157 150 185 155 150 250 247 189 208 179 118 42 267 244 249 213 228 258 239 194 245 250 232 226 174 181 230 236 216 214 213 211 210 210 209 207 202 193
317 306 270 247 268 272 266 189 168 178 213 224 227 228 227 231 248 280 302 300 278 257 258 230 190 207 207 196 190 186 187 184 182 192 194 187 193 196 198 195 188 203 217 225 223 196 212 192 145 175 168 137 167 177 161 165 218 268 237 153 160 225 208 199 242 257 253 270 272 206 230 253 239 218 155 186 233 256 222 208 208 209 207 208 206 199 196 190
292 275 237 47 317 277 194 164 165 183 213 221 224 219 220 226 235 262 283 285 274 255 255 251 204 214 222 214 194 182 186 188 180 191 202 188 179 188 200 201 192 200 212 221 219 188 211 221 163 161 162 151 171 198 200 182 177 253 237 175 203 251 229 196 227 271 278 280 287 242 212 235 222 172 98 237 264 280 236 201 206 213 207 206 202 193 190 186
281 262 110 32 342 208 158 160 173 194 209 222 230 214 200 214 227 247 265 271 272 263 262 278 238 212 216 227 217 184 187 199 192 195 201 185 175 181 197 204 197 194 200 214 219 196 199 228 202 146 151 171 187 200 216 203 182 196 211 199 197 205 245 245 223 249 274 279 288 274 261 271 118 117 215 263 255 256 241 213 213 214 208 204 197 191 188 185
277 249 98 40 55 138 149 177 189 194 212 226 241 226 191 204 229 238 241 255 267 263 271 289 281 253 219 222 224 191 189 203 201 201 197 185 195 201 188 198 195 179 181 203 212 202 193 212 204 162 170 201 199 185 222 255 201 199 207 208 204 196 210 237 223 205 230 265 278 283 282 293 95 129 204 246 242 231 228 228 220 209 206 200 192 191 188 186
258 262 67 62 121 164 207 214 182 200 222 219 248 234 184 204 236 244 248 244 253 250 252 267 269 264 241 225 223 195 192 201 199 203 201 193 206 207 166 179 189 178 185 202 202 200 200 212 215 197 186 187 149 121 57 329 247 220 221 223 219 206 213 237 242 196 190 237 261 273 280 283 110 132 181 202 264 260 249 261 247 214 201 194 191 191 187 187
270 307 56 93 240 244 250 211 178 210 223 205 311 248 206 219 224 228 234 235 248 246 243 254 254 248 239 239 245 203 196 201 202 206 208 201 203 173 135 164 186 186 197 203 190 179 185 214 220 211 169 127 108 110 135 195 235 227 223 230 236 227 227 245 267 184 204 226 230 249 266 262 108 113 148 146 226 260 246 258 260 236 205 190 191 190 186 188
302 303 245 224 251 226 233 220 194 208 213 209 240 226 216 239 242 240 239 240 256 259 260 264 255 252 255 267 261 217 200 200 201 205 215 207 189 93 129 170 191 199 203 203 176 170 188 208 210 209 194 180 175 174 177 184 212 225 222 221 231 234 234 237 161 177 234 240 238 257 276 271 114 124 176 162 195 231 230 235 246 242 228 200 191 189 185 185
290 262 220 225 204 203 231 276 257 223 211 212 226 223 214 214 211 266 270 260 268 281 279 279 284 286 275 256 241 213 211 228 202 194 205 195 164 108 149 183 213 217 207 56 107 178 194 202 200 212 212 201 206 209 202 197 203 222 227 216 214 219 220 218 210 220 235 231 225 245 273 290 120 148 178 174 194 224 234 240 236 229 234 220 197 191 187 184
299 252 200 189 178 201 238 294 289 260 221 210 217 214 221 219 165 116 256 245 235 283 276 272 288 282 249 227 219 198 201 228 226 187 195 192 161 128 153 193 221 223 173 67 183 193 198 202 202 220 229 221 224 216 206 211 209 211 215 209 207 213 215 217 232 239 219 195 218 227 247 274 270 225 230 245 244 251 253 254 246 225 219 215 202 196 191 189
297 326 3 301 183 200 207 202 257 262 237 220 217 190 222 234 213 173 203 213 124 306 273 251 266 273 241 224 224 201 190 202 211 199 202 195 149 129 142 190 209 199 131 177 214 201 199 211 206 219 231 236 244 205 195 218 225 218 215 212 208 209 210 215 229 231 183 210 247 213 203 254 271 277 291 297 279 275 275 271 270 251 221 209 202 198 196 194
313 341 23 334 280 204 189 180 321 278 222 213 221 217 225 228 228 205 171 206 231 333 280 218 206 287 312 298 261 211 183 192 204 199 196 193 165 155 155 156 172 173 174 201 206 198 223 219 206 215 224 224 226 200 202 224 233 230 225 215 205 202 205 214 225 222 209 245 268 173 165 243 271 287 297 300 292 285 284 286 290 280 246 219 205 201 200 196
344 342 43 315 298 356 4 341 319 276 217 213 209 207 233 227 203 84 40 262 213 80 336 248 169 359 335 323 299 235 177 198 207 178 111 215 202 190 181 164 153 170 186 192 184 198 241 218 193 217 221 206 194 201 211 222 227 231 228 214 202 201 204 213 224 224 227 251 267 253 220 256 278 289 293 296 294 287 287 289 282 272 257 232 212 208 205 198
351 354 6 308 278 348 344 327 289 241 195 218 216 171 216 237 60 64 43 324 264 74 7 334 5 356 334 308 315 6 58 7 300 59 8 292 211 209 209 189 142 174 188 188 176 184 222 214 184 211 214 195 184 190 202 216 218 217 216 205 198 200 202 213 226 220 219 242 259 265 267 269 277 282 280 283 286 277 270 270 269 270 267 246 229 220 212 204
335 320 322 299 279 347 314 312 280 242 190 192 210 155 157 101 38 24 114 35 15 38 23 357 352 344 316 125 64 44 27 352 321 329 332 298 298 337 271 329 358 201 186 183 182 186 202 206 171 203 217 197 177 188 192 201 209 205 200 193 191 196 202 213 219 208 217 237 245 255 263 269 284 297 290 289 288 274 263 261 262 271 275 259 245 234 222 212
335 280 279 287 274 28 310 241 233 239 196 68 37 35 20 59 26 336 218 141 52 41 21 355 343 324 193 115 48 7 342 322 305 307 308 288 290 297 279 292 311 289 210 185 192 191 199 201 179 207 227 190 169 191 188 188 210 213 200 195 197 203 211 215 214 210 221 240 248 254 266 291 320 315 294 288 288 283 276 269 265 273 277 265 252 242 233 220